Location: Chevoux
(46.3801°N, 4.9476°E)
Time: 04:16:27
(UTC+00:00)

Envisat - Pass Details

Date: 06 December 2021
Orbit: 764 x 766 km, 98.2° (Epoch: 16 January)

Event Time Altitude Azimuth Distance (km) Brightness Sun altitude
Rises 17:14:59 0° 216° (SW) 3,222 7.2 -13.4°
Reaches altitude 10° 17:18:29 10° 242° (WSW) 2,302 6.9 -14.0°
Maximum altitude 17:21:03 14° 272° (W) 2,046 6.3 -14.4°
Drops below altitude 10° 17:23:38 10° 303° (WNW) 2,311 6.0 -14.8°
Sets 17:27:10 0° 329° (NNW) 3,244 6.4 -15.4°
